[[{"header":{"parameterUnit":"m.s-1","parameterCategory":1,"la1":30.2991,"la2":30.254,"lo1":-89.0895,"lo2":-89.0444,"dy":0.0017,"dx":0.0017,"nx":28,"ny":28,"refTime":"2024-06-17T21:00:00:Z","depth":0,"parameterNumber":2,"parameterNumberName":"U-component_of_WINDS"},"data":[0,0,0,0,0,0,0,0,0,0,0,0,0,0,0,0,0,0,0,0,0,0,0,0,0,0,0,0,0,0,0,0,0,0,0,0,0,0,0,0,0,0,0,0,0,0,0,0,0,0,0,0,0,0,0,0,0,0,-9.4367,-9.4368,0,-9.4412,-9.4412,-9.4413,-9.4212,-9.4206,-9.42,-9.4195,-9.4241,-9.4248,-9.4254,0,0,0,0,0,0,0,0,0,0,0,0,0,-9.4109,-9.4115,-9.4367,-9.4368,-9.4368,-9.4412,-9.4412,-9.4413,-9.4213,-9.4206,-9.4199,-9.4192,-9.4239,-9.4247,-9.4255,0,0,0,0,0,0,0,0,0,0,0,0,0,-9.4194,-9.4116,-9.4367,-9.4274,-9.4266,-9.4412,-9.4412,-9.4413,-9.4215,-9.4206,-9.4197,-9.4189,-9.4237,-9.4246,-9.4256,-9.4494,0,0,-9.4287,-9.4291,0,0,0,0,0,0,0,0,-9.419,-9.4204,-9.4287,-9.428,-9.4272,-9.4297,-9.4338,-9.444,-9.4217,-9.4234,-9.4195,-9.4185,-9.4267,-9.4274,-9.4302,-9.4496,-9.4498,-9.4288,-9.4294,-9.4298,-9.4301,0,0,0,0,0,0,0,-9.4184,-9.4201,-9.4385,-9.4288,-9.4279,-9.423,-9.4232,-9.4357,-9.4299,-9.4232,-9.4217,-9.4226,-9.4261,-9.4293,-9.4301,-9.4499,-9.4287,-9.4296,-9.4303,-9.4307,-9.4892,-9.4901,0,0,0,0,0,0,-9.419,-9.4197,-9.4383,-9.4386,-9.4208,-9.4242,-9.4244,-9.4298,-9.4297,-9.4289,-9.4233,-9.4216,-9.428,-9.429,-9.4302,-9.4581,-9.4298,-9.4308,-9.4313,-9.4882,-9.4894,-9.4904,0,0,0,0,0,0,-9.4186,-9.4209,-9.4381,-9.4288,-9.4306,-9.4255,-9.4317,-9.4304,-9.4334,-9.4298,-9.4287,-9.4276,-9.4273,-9.4288,-9.4448,-9.458,-9.4312,-9.4321,-9.4871,-9.4886,-9.4899,-9.5141,0,0,0,0,0,0,-9.4179,-9.4208,-9.4298,-9.4291,-9.4312,-9.4527,-9.4326,-9.4311,-9.4352,-9.4331,-9.4335,-9.4327,-9.4268,-9.4434,-9.4458,-9.4589,-9.4329,-9.4859,-9.4878,-9.4894,-9.5121,-9.5162,-9.5197,0,0,0,0,0,-9.417,-9.4364,-9.4304,-9.4327,-9.4423,-9.4535,-9.4546,-9.4473,-9.4364,-9.4454,-9.4431,-9.4327,-9.4562,-9.4452,-9.4477,-9.4613,-9.485,-9.4872,-9.4893,-9.5104,-9.5154,-9.5196,0,0,0,0,0,0,-9.4387,-9.4362,-9.4294,-9.4491,-9.4517,-9.4501,-9.4612,-9.4528,-9.4585,-9.4563,-9.447,-9.4473,-9.4649,-9.4647,-9.4525,-9.4844,-9.4687,-9.4715,-9.4839,-9.4886,-9.4923,-9.492,-9.4337,0,0,0,0,0,-9.4458,-9.4551,-9.4524,-9.4701,-9.4717,-9.4663,-9.4709,-9.4651,-9.4673,-9.4683,-9.4671,-9.4698,-9.4777,-9.4831,-9.4902,-9.512,-9.5118,-9.5226,-9.5264,-9.5295,-9.532,-9.5435,-9.5483,-9.4974,-9.4974,-9.4974,0,0,-9.4605,-9.4603,-9.4667,-9.4744,-9.4757,-9.4856,-9.4673,-9.4785,-9.4857,-9.47,-9.485,-9.4843,-9.4866,-9.5057,-9.514,-9.506,-9.546,-9.5322,-9.5347,-9.5355,-9.5462,-9.5511,-9.5553,-9.4989,-9.4986,-9.4984,0,0,-9.4924,-9.4932,-9.508,-9.5097,-9.5119,-9.5082,-9.5118,-9.5115,-9.5104,-9.5254,-9.5138,-9.5223,-9.5361,-9.5383,-9.5412,-9.5741,-9.5649,-9.5767,-9.5964,-9.6078,-9.6118,-9.6153,-9.6271,-9.6315,-9.5792,-9.5792,-9.5793,0,-9.5104,-9.5248,-9.5166,-9.5287,-9.5324,-9.5187,-9.5337,-9.5357,-9.5402,-9.5431,-9.5341,-9.5513,-9.5519,-9.5713,-9.5793,-9.5821,-9.586,-9.5765,-9.6119,-9.6154,-9.6185,-9.6296,-9.6341,-9.5807,-9.5805,-9.5804,-9.5802,0,-9.5468,-9.557,-9.5687,-9.5734,-9.5785,-9.592,-9.5859,-9.5921,-9.5859,-9.5832,-9.5986,-9.5989,-9.6058,-9.61,-9.604,-9.6286,-9.6236,-9.6135,-9.5975,-9.6249,-9.6352,-9.6394,-9.5827,-9.5822,-9.5818,-9.5814,0,0,-9.5923,-9.5925,-9.5969,-9.5989,-9.6004,-9.6081,-9.621,-9.6278,-9.6333,-9.6369,-9.6475,-9.6596,-9.6503,-9.6537,-9.6478,-9.6579,-9.684,-9.6464,-9.6463,-9.6534,-9.7111,-9.7187,-9.7238,-9.6779,-9.6787,-9.6793,-9.7109,0,-9.6235,-9.6455,-9.6387,-9.6609,-9.6702,-9.6574,-9.6686,-9.6708,-9.6687,-9.6763,-9.6739,-9.6827,-9.6697,-9.6716,-9.681,-9.6788,-9.6954,-9.6764,-9.6877,-9.6882,-9.6875,-9.7292,-9.7372,-9.7671,-9.7149,-9.7156,-9.7161,0,-9.6628,-9.6681,-9.6913,-9.6913,-9.6949,-9.7052,-9.7109,-9.7184,-9.7206,-9.7184,-9.7223,-9.7144,-9.7271,-9.7112,-9.7286,-9.7159,-9.7201,-9.7197,-9.7207,-9.7214,-9.7038,-9.731,-9.7764,-9.7809,-9.7223,-9.7218,-9.7214,0,-9.6938,-9.7066,-9.7221,-9.7242,-9.7246,-9.7321,-9.7327,-9.734,-9.7386,-9.7437,-9.7466,-9.7531,-9.7567,-9.7619,-9.7561,-9.745,-9.7744,-9.758,-9.7729,-9.7731,-9.7796,-9.7793,-9.8263,-9.7825,-9.7824,-9.7823,-9.7822,0,-9.7293,-9.744,-9.736,-9.7456,-9.7617,-9.7537,-9.7699,-9.7689,-9.7703,-9.7795,-9.7688,-9.7777,-9.7694,-9.7776,-9.7731,-9.7882,-9.7899,-9.7885,-9.7871,-9.7894,-9.7896,-9.792,-9.7898,-9.7835,-9.7832,-9.783,-9.7828,0,-9.7665,-9.7617,-9.7778,-9.7769,-9.7771,-9.789,-9.7882,-9.7971,-9.7942,-9.806,-9.8083,-9.8039,-9.8129,-9.8076,-9.8169,-9.8138,-9.8336,-9.8294,-9.8328,-9.8317,-9.8469,-9.8456,-9.8971,-9.9035,-9.8556,-9.8561,-9.8565,0,-9.7894,-9.8005,-9.8008,-9.8062,-9.8075,-9.8163,-9.8209,-9.8136,-9.8189,-9.8224,-9.8308,-9.839,-9.845,-9.8602,-9.8578,-9.8648,-9.8607,-9.8783,-9.8617,-9.8637,-9.861,-9.8604,-9.8614,-9.8816,-9.8822,-9.8826,-9.883,0,-9.8308,-9.8279,-9.8349,-9.8414,-9.8472,-9.8519,-9.8556,-9.8607,-9.8533,-9.8599,-9.869,-9.8738,-9.8832,-9.8915,-9.8975,-9.898,-9.8895,-9.8883,-9.8921,-9.8946,-9.8961,-9.8955,-9.8419,-9.8871,-9.8867,-9.8864,-9.8862,-9.886,-9.8615,-9.8707,-9.8724,-9.8807,-9.8828,-9.8866,-9.8949,-9.8932,-9.9006,-9.9078,-9.903,-9.9138,-9.9159,-9.9231,-9.9248,-9.9332,-9.9261,-9.9317,-9.9331,-9.9345,-9.9366,-9.8949,-9.9343,-9.9342,-9.934,-9.9339,-9.9339,0,-9.9022,-9.9027,-9.9104,-9.9161,-9.9227,-9.914,-9.9178,-9.9239,-9.9335,-9.9362,-9.9425,-9.953,-9.961,-9.9594,-9.9666,-9.9737,-9.9699,-9.9758,-9.9752,-9.9755,-9.9426,-9.9385,-9.9788,-9.9787,-9.9787,-9.9787,-9.9787,-9.9787,-9.9241,-9.9393,-9.9367,-9.9528,-9.9532,-9.9637,-9.9666,-9.9701,-9.9722,-9.9845,-9.9911,-9.99,-9.991,-9.9982,-10.0052,-10.0045,-10.0077,-10.0151,-10.013,-9.9822,-9.9778,-9.9735,-9.9697,-10.0158,-10.0159,-10.0451,-10.0454,-10.0456]},{"header":{"parameterUnit":"m.s-1","parameterCategory":1,"la1":30.2991,"la2":30.254,"lo1":-89.0895,"lo2":-89.0444,"dy":0.0017,"dx":0.0017,"nx":28,"ny":28,"refTime":"2024-06-17T21:00:00:Z","depth":0,"parameterNumber":3,"parameterNumberName":"V-component_of_WINDS"},"data":[0,0,0,0,0,0,0,0,0,0,0,0,0,0,0,0,0,0,0,0,0,0,0,0,0,0,0,0,0,0,0,0,0,0,0,0,0,0,0,0,0,0,0,0,0,0,0,0,0,0,0,0,0,0,0,0,0,0,-1.9055,-1.9054,0,-1.9026,-1.9025,-1.9025,-1.896,-1.8959,-1.8958,-1.8956,-1.893,-1.893,-1.8931,0,0,0,0,0,0,0,0,0,0,0,0,0,-1.9055,-1.9055,-1.9055,-1.9054,-1.9054,-1.9026,-1.9025,-1.9025,-1.896,-1.8959,-1.8957,-1.8956,-1.893,-1.893,-1.8931,0,0,0,0,0,0,0,0,0,0,0,0,0,-1.9043,-1.9055,-1.9055,-1.9018,-1.9015,-1.9026,-1.9025,-1.9025,-1.8961,-1.8959,-1.8957,-1.8955,-1.893,-1.893,-1.8931,-1.8976,0,0,-1.8934,-1.8934,0,0,0,0,0,0,0,0,-1.9044,-1.9043,-1.9024,-1.9021,-1.9017,-1.8994,-1.9016,-1.9009,-1.8961,-1.8981,-1.8956,-1.8954,-1.8953,-1.8952,-1.8951,-1.8975,-1.8974,-1.8934,-1.8934,-1.8935,-1.8935,0,0,0,0,0,0,0,-1.9045,-1.9044,-1.9043,-1.9024,-1.9019,-1.9004,-1.9,-1.9014,-1.8979,-1.8979,-1.8975,-1.8972,-1.8951,-1.895,-1.895,-1.8974,-1.8934,-1.8934,-1.8935,-1.8935,-1.9032,-1.9034,0,0,0,0,0,0,-1.9051,-1.9045,-1.9044,-1.9042,-1.9026,-1.9005,-1.9001,-1.9004,-1.8979,-1.8973,-1.8974,-1.8969,-1.895,-1.8949,-1.8949,-1.8999,-1.8935,-1.8935,-1.8936,-1.903,-1.9032,-1.9034,0,0,0,0,0,0,-1.9051,-1.9051,-1.9045,-1.9042,-1.9041,-1.9007,-1.9011,-1.9004,-1.9004,-1.8974,-1.8968,-1.898,-1.8948,-1.8948,-1.8969,-1.8997,-1.8936,-1.8936,-1.9027,-1.903,-1.9033,-1.9101,0,0,0,0,0,0,-1.9051,-1.9052,-1.9069,-1.9043,-1.9041,-1.9066,-1.9013,-1.9005,-1.9005,-1.8998,-1.8978,-1.8973,-1.8947,-1.8969,-1.897,-1.8997,-1.8937,-1.9025,-1.9029,-1.9032,-1.9096,-1.9106,-1.9115,0,0,0,0,0,-1.9052,-1.909,-1.907,-1.907,-1.9061,-1.9068,-1.9067,-1.9035,-1.9007,-1.9024,-1.9005,-1.8974,-1.8994,-1.8971,-1.8973,-1.9001,-1.9023,-1.9027,-1.9032,-1.9092,-1.9104,-1.9114,0,0,0,0,0,0,-1.9121,-1.9086,-1.9063,-1.9094,-1.9084,-1.9057,-1.9077,-1.9049,-1.9048,-1.9042,-1.9003,-1.8999,-1.9026,-1.9015,-1.8991,-1.9042,-1.9003,-1.9008,-1.9048,-1.906,-1.9069,-1.9071,-1.8938,0,0,0,0,0,-1.9139,-1.9147,-1.9117,-1.9147,-1.9143,-1.9111,-1.9113,-1.9089,-1.9078,-1.9073,-1.9056,-1.9047,-1.9051,-1.9054,-1.9057,-1.9094,-1.9088,-1.9114,-1.9123,-1.913,-1.9136,-1.9153,-1.9164,-1.905,-1.905,-1.905,0,0,-1.9179,-1.916,-1.9168,-1.916,-1.915,-1.9159,-1.9108,-1.912,-1.9127,-1.9076,-1.9095,-1.9081,-1.9068,-1.9098,-1.911,-1.909,-1.9166,-1.9136,-1.9143,-1.9144,-1.9159,-1.917,-1.918,-1.9053,-1.9052,-1.9052,0,0,-1.9254,-1.9242,-1.9265,-1.9255,-1.9239,-1.9217,-1.9222,-1.9199,-1.9187,-1.9205,-1.9167,-1.9174,-1.9182,-1.9174,-1.9171,-1.9242,-1.9213,-1.9243,-1.9292,-1.9309,-1.9318,-1.9326,-1.9351,-1.936,-1.9248,-1.9249,-1.9249,0,-1.9305,-1.9317,-1.9281,-1.9295,-1.9292,-1.9244,-1.9267,-1.926,-1.9246,-1.9246,-1.9223,-1.923,-1.9219,-1.9245,-1.9262,-1.9261,-1.9266,-1.9246,-1.932,-1.9327,-1.9334,-1.9357,-1.9367,-1.9252,-1.9252,-1.9252,-1.9251,0,-1.938,-1.9389,-1.9409,-1.9395,-1.9395,-1.9414,-1.938,-1.9385,-1.936,-1.9341,-1.9359,-1.9343,-1.934,-1.9344,-1.9322,-1.9367,-1.9355,-1.9327,-1.9287,-1.9349,-1.937,-1.9379,-1.9258,-1.9257,-1.9255,-1.9254,0,0,-1.95,-1.9464,-1.9472,-1.9465,-1.9443,-1.9449,-1.9465,-1.9461,-1.9465,-1.9457,-1.9469,-1.9476,-1.9449,-1.9446,-1.9421,-1.9437,-1.9493,-1.9406,-1.9405,-1.9423,-1.9541,-1.9563,-1.9573,-1.9473,-1.9474,-1.9476,-1.9542,0,-1.9571,-1.9596,-1.9562,-1.9595,-1.9602,-1.9555,-1.9569,-1.9557,-1.9539,-1.9543,-1.9523,-1.9528,-1.9492,-1.949,-1.9503,-1.9483,-1.9516,-1.9478,-1.9485,-1.9485,-1.9489,-1.9584,-1.9608,-1.9671,-1.955,-1.9551,-1.9552,0,-1.9657,-1.9651,-1.9684,-1.9658,-1.9659,-1.9673,-1.9665,-1.9669,-1.9654,-1.964,-1.9635,-1.9605,-1.9619,-1.958,-1.9599,-1.9573,-1.9574,-1.9564,-1.9566,-1.9566,-1.9523,-1.9587,-1.9691,-1.97,-1.9565,-1.9564,-1.9563,0,-1.9741,-1.9741,-1.976,-1.9755,-1.9726,-1.9736,-1.9724,-1.9707,-1.9706,-1.97,-1.9699,-1.9695,-1.9693,-1.9691,-1.9661,-1.9635,-1.9683,-1.9642,-1.9672,-1.9673,-1.9685,-1.9685,-1.979,-1.9685,-1.9685,-1.9685,-1.9685,0,-1.9824,-1.9846,-1.9797,-1.9809,-1.9832,-1.9793,-1.9817,-1.98,-1.9785,-1.9793,-1.9753,-1.9761,-1.9721,-1.9725,-1.9701,-1.972,-1.972,-1.9709,-1.9702,-1.9712,-1.9714,-1.9713,-1.9707,-1.9687,-1.9687,-1.9686,-1.9686,0,-1.9922,-1.989,-1.9908,-1.9878,-1.987,-1.9888,-1.9863,-1.9872,-1.985,-1.9861,-1.9861,-1.9828,-1.983,-1.9799,-1.9797,-1.9781,-1.981,-1.9796,-1.9815,-1.9811,-1.9842,-1.984,-1.9951,-1.9964,-1.9851,-1.9852,-1.9853,0,-1.9977,-1.9992,-1.9963,-1.9964,-1.9954,-1.9958,-1.9956,-1.9918,-1.9918,-1.9901,-1.9913,-1.9912,-1.9909,-1.9915,-1.9891,-1.9888,-1.9874,-1.9913,-1.9873,-1.9882,-1.9874,-1.9874,-1.9875,-1.9922,-1.9923,-1.9924,-1.9925,0,-2.0078,-2.0061,-2.0059,-2.0052,-2.0051,-2.0044,-2.0034,-2.0038,-1.9996,-1.9998,-1.9999,-1.9997,-1.9993,-1.9992,-1.9984,-1.9973,-1.9942,-1.9937,-1.9944,-1.9955,-1.9965,-1.996,-1.9838,-1.9935,-1.9934,-1.9934,-1.9933,-1.9933,-2.0156,-2.0166,-2.0147,-2.0146,-2.0134,-2.0126,-2.0133,-2.0111,-2.0111,-2.0104,-2.0081,-2.0086,-2.007,-2.0056,-2.0047,-2.005,-2.0031,-2.0041,-2.0044,-2.0047,-2.0052,-1.9964,-2.0049,-2.0048,-2.0048,-2.0048,-2.0047,0,-2.0254,-2.0238,-2.0238,-2.0225,-2.0224,-2.0193,-2.0181,-2.0182,-2.0187,-2.0173,-2.017,-2.0171,-2.017,-2.0145,-2.014,-2.0148,-2.0134,-2.0148,-2.0148,-2.0145,-2.007,-2.0064,-2.016,-2.016,-2.016,-2.016,-2.016,-2.016,-2.0305,-2.0321,-2.0302,-2.0312,-2.0296,-2.0299,-2.0294,-2.0286,-2.0275,-2.0277,-2.0275,-2.0258,-2.024,-2.0234,-2.0231,-2.0223,-2.0224,-2.0243,-2.0231,-2.0162,-2.0151,-2.014,-2.0135,-2.0243,-2.0244,-2.0306,-2.0306,-2.0307]}]]